GORIZONT 31 [-]

Last updated on Jan. 23, 2021, 7:21 a.m. UTC

1 23775U 96005A   21022.76986410 -.00000280  00000-0  00000-0 0  9993
2 23775  14.5117   9.7234 0015829 191.7902 161.6687  0.99896812 91359
UTC
Height (km)
Latitude
Longitude
Inclination
Orbital Period
UTC large
Height (km)
Speed (km/s)
/
Latitude / Longitude
Inclination (degrees)
Orbital Period (minutes)
Azimuth
Elevation
Range (km)
Doppler Factor
iOS Compass Heading
iOS Angle

Next 30 passes for location: Hong Kong

Rise time Rise Azimuth (degrees) Set time Set Azimuth (degrees) Duration Max altitude (degrees)

No matching passes for this satellites